User: anonymous   Login
Location: Gombori
(14.9797°N, 2.9419°W)
Time: 17:03:24
(UTC+00:00)
Language:

CSL-04 Debris - Orbit

View from above orbital plane
View from above orbital plane
View from above satellite
View from above satellite

Ground track
Ground track

The orbit data is extracted from the following two-line orbital elements,

1 25733U 99025D   21296.71327047  .00000142  00000-0  93572-4 0  9993
2 25733  98.8979 332.1541 0014606   3.2854 356.8413 14.16504354159525
Epoch (UTC): 23 October 2021 17:07:06
Eccentricity: 0.0014606
inclination: 98.8979°
perigee height: 826 km
apogee height: 848 km
right ascension of ascending node: 332.1541°
argument of perigee: 3.2854°
revolutions per day: 14.16504354
mean anomaly at epoch: 356.8413°
orbit number at epoch: 15952

The dashed part of the orbit path shows where the satellite is in the earth's shadow,  

DLR